Location: Seasalter
(51.3333°N, 1.0167°E)
Time: 04:51:38
(UTC+00:00)

ATLAS 5 CENTAUR R/B - Pass Details

Date: 01 May 2024
Orbit: 421 x 1170 km, 63.3° (Epoch: 18 May)

Event Time Altitude Azimuth Distance (km) Brightness Sun altitude
Rises 21:29:22 0° 314° (NW) 2,730 6.6 -16.3°
Reaches altitude 10° 21:31:40 10° 327° (NNW) 1,937 5.5 -16.5°
Maximum altitude 21:35:27 27° 27° (NNE) 1,284 3.5 -16.8°
Drops below altitude 10° 21:39:57 10° 85° (E) 2,336 4.2 -17.2°
Enters shadow 21:40:34 - 88° (E) 2,548 4.4 -17.3°
